Terminal Aerodrome Forecast
Issued by NWS

Home | Current Version | Previous Version | Text Only | Print | Product List | Glossary On
Versions: 1 2 3 4 5 6 7 8 9 10 11 12 13 14 15 16 17 18 19 20 21 22 23 24 25 26 27 28 29 30 31 32 33 34 35 36 37 38 39 40
121
FTAK31 PANC 052349 AAA
TAFACD
TAF AMD
PACD 052349Z 0600/0624 25012KT P6SM -SHRA SCT018 BKN035
      TEMPO 0600/0602 25015G23KT 4SM -SHRA BR BKN018
     FM060300 30014KT P6SM -SHSNRA SCT015 BKN035
     FM061300 32015KT P6SM -SN SCT015 OVC030
     FM061800 32020KT P6SM VCSH SCT030 BKN050=

USA.gov is the U.S. government's official web portal to all federal, state and local government web resources and services.